Regional Weather Roundup
Issued by NWS

Home | Current Version | Previous Version | Text Only | Print | Product List | Glossary On
Versions: 1 2 3 4 5 6 7 8 9 10 11 12 13 14 15 16 17 18 19 20 21 22 23 24 25 26 27 28 29 30 31 32 33 34 35 36 37 38 39 40 41 42 43 44 45 46 47 48 49 50
000
ASUS43 KLOT 030721
RWRIL

ILLINOIS REGIONAL WEATHER ROUNDUP
NATIONAL WEATHER SERVICE CHICAGO/ROMEOVILLE IL
200 AM CDT WED JUN 03 2015

NOTE: "FAIR" INDICATES FEW OR NO CLOUDS BELOW 12,000 FEET WITH NO
SIGNIFICANT WEATHER AND/OR OBSTRUCTIONS TO VISIBILITY.

* THESE STATIONS ARE NOT UNDER NWS QUALITY CONTROL. THEY ALSO MAY NOT
  REPORT WEATHER SUCH AS PRECIPITATION OR FOG.

ILZ001-002-007-009-015-016-024-030800-
NORTHWEST ILLINOIS

CITY           SKY/WX    TMP DP  RH WIND       PRES   REMARKS
MOLINE         MOCLDY    59  51  75 SE5       30.02S
STERLING*      MOCLDY    57  48  72 E7        30.05F
SAVANNA*       MOCLDY    59  49  69 SE6       30.04S
$$

ILZ003-004-008-010-011-017-018-030800-
NORTH CENTRAL ILLINOIS

CITY           SKY/WX    TMP DP  RH WIND       PRES   REMARKS
ROCKFORD       CLOUDY    57  48  72 SE12      30.08R
FREEPORT*      MOCLDY    54  47  79 SE5       30.07S
ROCHELLE*      MOCLDY    56  49  79 SE9       30.08S
DE KALB*       PTCLDY    52  46  80 SE6       30.09S
PERU*          PTCLDY    60  53  77 SE9       30.07S
$$

ILZ005-006-012>014-019>023-030800-
NORTHEAST ILLINOIS

CITY           SKY/WX    TMP DP  RH WIND       PRES   REMARKS
CHICAGO-OHARE  MOCLDY    53  44  71 SE3       30.08F
CHICAGO-MIDWAY PTCLDY    57  48  72 E5        30.08F
AURORA         CLEAR     54  46  74 CALM      30.08F
LANSING*       CLEAR     51  45  82 CALM      30.10R
JOLIET*        CLEAR     57  52  83 SE5       30.08S
WAUKEGAN       CLEAR     46  44  93 CALM      30.09S
DUPAGE AIRPORT CLEAR     54  45  71 E3        30.08S
KANKAKEE*      CLEAR     55  52  88 SE3       30.08F
WHEELING       CLEAR     50  45  83 CALM      30.10F
MORRIS*        CLEAR     56  51  83 E3        30.05R
ROMEOVILLE*    CLEAR     53  47  80 SE5       30.08S
NORTHERLY ISL    N/A     53  48  83 E1          N/A
$$

LMZ740>746-030800-
SOUTHERN LAKE MICHIGAN

STATION/POSITION SKY/WX   TEMP    WIND        PRES    VSBY  WAVE
                          AIR SEA DIR/SP/G                  HT/PER
                          (F)     (DEG/KT/KT) (MB)    (MI)  (FT/S)
SOUTHERN BUOY              46 38  120/  8/ 10 1019.7S
HARRISON CRIB              55     150/  4/  5   N/A
BURNHAM HARBOR             54     100/  2       N/A
CALUMET HARBOR             56                   N/A
BURNS HARBOR                      140/  5/ 11 1019.6S
MICHIGAN CITY              57     120/  6/  7   N/A
MICHIGAN CITY 6N           57 56  160/  6/  8   N/A           1
ST. JOSEPH                 56 55  160/  6/  6   N/A           1
$$

ILZ025>027-034>036-040-047-049-050-058-095>099-030800-
WEST-CENTRAL ILLINOIS

CITY           SKY/WX    TMP DP  RH WIND       PRES   REMARKS
QUINCY         PTCLDY    61  57  87 S8        30.02S
GALESBURG*     PTCLDY    59  53  80 E3        30.03S
MACOMB*        PTCLDY    56  53  91 SE3       30.05S
JACKSONVILLE*  CLEAR     62  58  87 S6        30.04S
PITTSFIELD*    CLEAR     60  56  88 S3        30.04S
$$

ILZ028>032-037-038-041>044-048-051>054-059>061-030800-
CENTRAL ILLINOIS

CITY           SKY/WX    TMP DP  RH WIND       PRES   REMARKS
PONTIAC        CLEAR     57  55  94 CALM      30.07S
BLOOMINGTON    PTCLDY    58  56  93 SE10      30.07S
DECATUR        CLEAR     56  54  93 CALM      30.05F
PEORIA         PTCLDY    64  53  67 SE9       30.04S
LACON*         PTCLDY    60  53  78 SE10      30.04S
LINCOLN*       CLEAR     59  56  88 CALM      30.04R
SPRINGFIELD    PTCLDY    60  56  86 S3        30.04S
TAYLORVILLE    CLEAR     55  54  94 S3        30.04F FOG
$$

ILZ033-039-045-046-055>057-062-063-030800-
EAST-CENTRAL ILLINOIS

CITY           SKY/WX    TMP DP  RH WIND       PRES   REMARKS
CHAMPAIGN      CLEAR     56  54  93 E7        30.07S
DANVILLE*      CLEAR     54  52  94 E5        30.05S
RANTOUL*       CLEAR     57  55  90 S3        30.07F
MATTOON        CLEAR     56  54  93 SE7       30.05F
PARIS*         CLEAR     56  54  92 CALM      30.08S
$$

ILZ079-100>102-030800-
SOUTHWEST ILLINOIS

CITY           SKY/WX    TMP DP  RH WIND       PRES   REMARKS
ALTON          CLEAR     56  56 100 SE3       30.04F
BELLEVILLE     CLEAR     57  57  99 SE2       30.03F
CAHOKIA*       PTCLDY    57  55  93 CALM      30.03F
SPARTA*        CLOUDY    60  57  89 CALM      30.05F
$$

ILZ064>066-069>071-074>076-080>082-084>086-088>090-092>094-030800-
SOUTH-CENTRAL ILLINOIS

CITY           SKY/WX    TMP DP  RH WIND       PRES   REMARKS
CARBONDALE     FOG       55  53  93 CALM      30.03F VSB 3/4
CAIRO*         CLOUDY    62  59  88 E3        30.03F
EFFINGHAM*     PTCLDY    56  53  92 CALM      30.07S FOG
MARION         CLEAR     54  54 100 CALM      30.04F FOG
MT. VERNON     CLEAR     52  46  82 CALM      30.05F
CENTRALIA*     CLEAR     53  51  94 CALM      30.05S FOG
SALEM*         CLEAR     58  55  91 CALM      30.05F FOG
$$

ILZ067-068-072-073-078-083-087-091-030800-
SOUTHEAST ILLINOIS

CITY           SKY/WX    TMP DP  RH WIND       PRES   REMARKS
LAWRENCEVILLE  PTCLDY    57  54  89 E8        30.07F
FLORA*         CLEAR     55  54  98 CALM      30.06S FOG
FAIRFIELD*     CLEAR     53  52  99 CALM      30.05S FOG
HARRISBURG*    PTCLDY    53  53 100 CALM      30.06S FOG
ROBINSON*      PTCLDY    58  55  89 E7        30.08F
CARMI*         CLOUDY    55  54  94 E5        30.05F FOG
$$

ABBREVIATIONS USED IN REMARKS
   TC - TEMPERATURE IN CELSIUS
  WCI - WIND CHILL INDEX
   HX - HEAT INDEX
  VSB - VISIBILITY
$$



USA.gov is the U.S. government's official web portal to all federal, state and local government web resources and services.